sat.trackr.live / text

‹ back to catalog

YAOGAN-40 03A

NORAD 65544 · 2025-199A

PAYLOAD ACTIVE UNKNOWN

§ Identity

Operator
Country
PRC
Launch date
2025-09-06
Launch site
TAISC
Launch vehicle
Mass (kg)
RCS (m²)

External: N2YO · Heavens-Above · Gunter

§ Orbital elements

Epoch: 2026-09-20T13:07:13.561536Z

Period
100.94 min
Inclination
85.9944°
Eccentricity
0.0015530
Mean motion
14.26530152 rev/d
Perigee alt
792.2 km
Apogee alt
814.5 km
Semi-major
7,181.5 km
B*
8.0662e-5
RAAN
357.3321°
Arg perigee
120.8430°
Mean anomaly
239.4291°
Rev number
5,401

§ Raw data

YAOGAN-40 03A1 65544U 25199A   26263.54668474  .00000214  00000+0  80662-4 0  99952 65544  85.9944 357.3321 0015530 120.8430 239.4291 14.26530152 54010

JSON: /api/v1/satellites/65544 · /tle

For live sub-satellite position, see the globe view (requires WebGL).

§ Visibility from observer

Set your observer location to see the next 7 days of passes ≥ 10°. The values pass through the URL so the page stays shareable.

No JS? Fill the form by hand. The geolocation button needs JavaScript.